Location: Goll?ig?dem
(16.6773°N, 80.7332°E)
Time: 16:52:30
(UTC+00:00)

Hubble Space Telescope - Pass Details

Date: 04 October 2021
Orbit: 535 x 538 km, 28.5° (Epoch: 16 October)

Event Time Altitude Azimuth Distance (km) Brightness Sun altitude
Exits shadow 23:26:23 20° 228° (SW) 1,272 2.3 -15.5°
Maximum altitude 23:29:05 59° 153° (SSE) 619 1.2 -14.9°
Drops below altitude 10° 23:33:08 10° 74° (ENE) 1,778 4.7 -13.9°
Sets 23:35:25 0° 70° (ENE) 2,668 5.7 -13.4°
